Home   Weather   Huntsville   Past weeks

Flag for USA Past Weather in Huntsville, Alabama, USA — Yesterday and Last 2 Weeks

70 °F

Partly cloudy.

Feels Like: 76 °F
Forecast: 62 / 80 °F
Wind: 12 mph from South

Location: Huntsville International / Jones Field

Current Time: Oct 27, 2016 at 12:20:22 AM

Latest Report: Oct 26, 2016 at 11:53 PM

Visibility: 10 mi

Pressure: 30.21 "Hg

Humidity: 59%

Dew Point: 55 °F

Location of HuntsvilleLocation

Past Weather in Huntsville — Graph


Huntsville Temperature Yesterday

Maximum temperature yesterday: 83 °F (at 1:53 PM)
Minimum temperature yesterday: 55 °F (at 6:53 AM)
Average temperature yesterday: 68 °F

High & Low Weather Summary for the Past Weeks

High90 °F (Oct 19, 2:53 PM)100% (Oct 20, 8:53 PM)30.29 "Hg (Oct 20, 8:53 PM)
Low42 °F (Oct 23, 6:53 AM)20% (Oct 25, 4:53 PM)29.90 "Hg (Oct 17, 4:53 PM)
Average68 °F60%30.12 "Hg
* Reported Oct 11 10:53 PM — Oct 26 10:53 PM, Huntsville, Weather by CustomWeather, © 2016

Note: Actual official high and low records may vary slightly from our data, if they occured in-between our weather recording intervals... More about our weather records


Huntsville Weather History for the Previous 24 Hours

Scroll right to see more
Time TempWeatherWind HumidityBarometerVisibility
10:53 PM
Wed, Oct 26
68 °FPartly cloudy.6 mph57%30.21 "Hg10 mi
9:53 PM66 °FPassing clouds.6 mph56%30.19 "Hg10 mi
8:53 PM66 °FPassing clouds.6 mph56%30.19 "Hg10 mi
7:53 PM67 °FOvercast.5 mph53%30.18 "Hg10 mi
6:53 PM72 °FOvercast.6 mph43%30.16 "Hg10 mi
5:53 PM75 °FOvercast.5 mph40%30.15 "Hg10 mi
4:53 PM80 °FPartly sunny.8 mph30%30.16 "Hg10 mi
3:53 PM82 °FPartly sunny.10 mph29%30.16 "Hg10 mi
2:53 PM82 °FPartly sunny.10 mph28%30.17 "Hg10 mi
1:53 PM83 °FPartly sunny.7 mph27%30.19 "Hg10 mi
12:53 PM82 °FPartly sunny.14 mph28%30.22 "Hg10 mi
11:53 AM76 °FPartly sunny.8 mph39%30.25 "Hg10 mi
10:53 AM73 °FPartly sunny.9 mph43%30.27 "Hg10 mi
9:53 AM69 °FPartly sunny.10 mph49%30.27 "Hg10 mi
8:53 AM65 °FPartly sunny.6 mph61%30.26 "Hg10 mi
7:53 AM59 °FScattered clouds.6 mph72%30.24 "Hg10 mi
6:53 AM55 °FPassing clouds.6 mph72%30.22 "Hg10 mi
5:53 AM58 °FClear.6 mph62%30.22 "Hg10 mi
4:53 AM56 °FClear.6 mph67%30.21 "Hg10 mi
3:53 AM57 °FClear.6 mph64%30.21 "Hg10 mi
2:53 AM58 °FClear.5 mph62%30.21 "Hg10 mi
1:53 AM60 °FClear.5 mph56%30.22 "Hg10 mi
12:53 AM60 °FClear.5 mph58%30.21 "Hg10 mi
Weather by CustomWeather, © 2016

See weather overviewHow to use our weather pages